User: anonymous   Login
Location: Granada
(37.1830°N, 3.6000°W)
Time: 13:47:18
(UTC+02:00)
Language:

Iridium 70 - Orbit

View from above orbital plane
View from above orbital plane
View from above satellite
View from above satellite

Ground track
Ground track

The orbit data is extracted from the following two-line orbital elements,

1 25342U 98032A   16182.51484082  .00000032  00000-0  42843-5 0  9999
2 25342  86.3954  11.2513 0002391  89.1828 325.6277 14.34215367948691
Epoch (UTC): 30 June 2016 12:21:22
Eccentricity: 0.0002391
inclination: 86.3954°
perigee height: 776 km
apogee height: 779 km
right ascension of ascending node: 11.2513°
argument of perigee: 89.1828°
revolutions per day: 14.34215367
mean anomaly at epoch: 325.6277°
orbit number at epoch: 94869

The dashed part of the orbit path shows where the satellite is in the earth's shadow,  

DLR